{"data":{"norad_id":65702,"epoch":"2026-09-20T02:43:19.682400Z","epoch_age_seconds":142158,"freshness":"FRESH","line1":"1 65702U 25212AC  26263.11342225  .00013667  00000+0  45118-3 0  9995","line2":"2 65702  53.1592 161.6741 0001561  88.3215 271.7965 15.31713845 57022","mean_motion":15.31713845,"eccentricity":0.0001561,"inclination_deg":53.1592,"raan_deg":161.6741,"arg_perigee_deg":88.3215,"mean_anomaly_deg":271.7965,"bstar":0.00045118,"rev_number":5702,"period_min":94.012338185792,"perigee_km":469.62962105539,"apogee_km":471.76782756852,"semimajor_km":6848.835724312,"source":"CELESTRAK","updated_at":"2026-09-21T09:00:35.690613Z"}}